QPF
0.00 0.00 0.00 0.00 0.00 0.00 0.00 0.00 0.00 0.00 0.00 0.00 0.00 0.00 0.00 0.00 0.00 0.00 0.00 0.00 0.00 0.00 0.00 0.00 0.00 0.00 0.00 0.00 0.00 0.00 0.00 0.00 0.00 0.00 0.00 0.00 0.00 0.00 0.00 0.00 0.00 0.00 0.00 0.00
0.00 0.00 0.00 0.00 0.00 0.00 0.00 0.00 0.00 0.00 0.00 0.00 0.00 0.00 0.00 0.00 0.00 0.00 0.00 0.00 0.00 0.00 0.00 0.00 0.00 0.00 0.00 0.00 0.00 0.00 0.00 0.00 0.00 0.00 0.00 0.00 0.00 0.00 0.00 0.00 0.00 0.00 0.00 0.00
0.00 0.00 0.00 0.00 0.00 0.00 0.00 0.00 0.00 0.00 0.00 0.00 0.00 0.00 0.00 0.00 0.00 0.00 0.00 0.00 0.00 0.00 0.00 0.00 0.00 0.00 0.00 0.00 0.00 0.00 0.00 0.00 0.00 0.00 0.00 0.00 0.00 0.00 0.00 0.00 0.00 0.00 0.00 0.00
0.00 0.00 0.00 0.00 0.00 0.00 0.00 0.00 0.00 0.00 0.00 0.00 0.00 0.00 0.00 0.00 0.00 0.00 0.00 0.00 0.00 0.00 0.00 0.00 0.00 0.00 0.00 0.00 0.00 0.00 0.00 0.00 0.00 0.00 0.00 0.00 0.00 0.00 0.00 0.00 0.00 0.00 0.00 0.00
0.00 0.00 0.00 0.00 0.00 0.00 0.00 0.00 0.00 0.00 0.00 0.00 0.00 0.00 0.00 0.00 0.00 0.00 0.00 0.00 0.00 0.00 0.00 0.00 0.00 0.00 0.00 0.00 0.00 0.00 0.00 0.00 0.00 0.00 0.00 0.00 0.00 0.00 0.00 0.00 0.00 0.00 0.00 0.00
0.00 0.00 0.00 0.00 0.00 0.00 0.00 0.00 0.00 0.00 0.00 0.00 0.00 0.00 0.00 0.00 0.00 0.00 0.00 0.00 0.00 0.00 0.00 0.00 0.00 0.00 0.00 0.00 0.00 0.00 0.00 0.00 0.00 0.00 0.00 0.00 0.00 0.00 0.00 0.00 0.00 0.00 0.00 0.00
0.00 0.00 0.00 0.00 0.00 0.00 0.00 0.00 0.00 0.00 0.00 0.00 0.00 0.00 0.00 0.00 0.00 0.00 0.00 0.00 0.00 0.00 0.00 0.00 0.00 0.00 0.00 0.00 0.00 0.00 0.00 0.00 0.00 0.00 0.00 0.00 0.00 0.00 0.00 0.00 0.00 0.00 0.00 0.00
0.00 0.00 0.00 0.00 0.00 0.00 0.00 0.00 0.00 0.00 0.00 0.00 0.00 0.00 0.00 0.00 0.00 0.00 0.00 0.00 0.00 0.00 0.00 0.00 0.00 0.00 0.00 0.00 0.00 0.00 0.00 0.00 0.00 0.00 0.00 0.00 0.00 0.00 0.00 0.00 0.00 0.00 0.00 0.00
0.00 0.00 0.00 0.00 0.00 0.00 0.00 0.00 0.00 0.00 0.00 0.00 0.00 0.00 0.00 0.00 0.00 0.00 0.00 0.00 0.00 0.00 0.00 0.00 0.00 0.00 0.00 0.00 0.00 0.00 0.00 0.00 0.00 0.00 0.00 0.00 0.00 0.00 0.00 0.00 0.00 0.00 0.00 0.00
0.00 0.00 0.00 0.00 0.00 0.00 0.00 0.00 0.00 0.00 0.00 0.00 0.00 0.00 0.00 0.00 0.00 0.00 0.00 0.00 0.00 0.00 0.00 0.00 0.00 0.00 0.00 0.00 0.00 0.00 0.00 0.00 0.00 0.00 0.00 0.00 0.00 0.00 0.00 0.00 0.00 0.00 0.00 0.00
0.00 0.00 0.00 0.00 0.00 0.00 0.00 0.00 0.00 0.00 0.00 0.00 0.00 0.00 0.00 0.00 0.00 0.00 0.00 0.00 0.00 0.00 0.00 0.00 0.00 0.00 0.00 0.00 0.00 0.00 0.00 0.00 0.00 0.00 0.00 0.00 0.00 0.00 0.00 0.00 0.00 0.00 0.00 0.00
0.00 0.00 0.00 0.00 0.00 0.00 0.00 0.00 0.00 0.00 0.00 0.00 0.00 0.00 0.00 0.00 0.00 0.00 0.00 0.00 0.00 0.00 0.00 0.00 0.00 0.00 0.00 0.00 0.00 0.00 0.00 0.00 0.00 0.00 0.00 0.00 0.00 0.00 0.00 0.00 0.00 0.00 0.00 0.00
0.00 0.00 0.00 0.00 0.00 0.00 0.00 0.00 0.00 0.00 0.00 0.00 0.00 0.00 0.00 0.00 0.00 0.00 0.00 0.00 0.00 0.00 0.00 0.00 0.00 0.00 0.00 0.00 0.00 0.00 0.00 0.00 0.00 0.00 0.00 0.00 0.00 0.00 0.00 0.00 0.00 0.00 0.00 0.00
0.00 0.00 0.00 0.00 0.00 0.00 0.00 0.00 0.00 0.00 0.00 0.00 0.00 0.00 0.00 0.00 0.00 0.00 0.00 0.00 0.00 0.00 0.00 0.00 0.00 0.00 0.00 0.00 0.00 0.00 0.00 0.00 0.00 0.00 0.00 0.00 0.00 0.00 0.00 0.00 0.00 0.00 0.00 0.00
0.00 0.00 0.00 0.00 0.00 0.00 0.00 0.00 0.00 0.00 0.00 0.00 0.00 0.00 0.00 0.00 0.00 0.00 0.00 0.00 0.00 0.00 0.00 0.00 0.00 0.00 0.00 0.00 0.00 0.00 0.00 0.00 0.00 0.00 0.00 0.00 0.00 0.00 0.00 0.00 0.00 0.00 0.00 0.00
0.00 0.00 0.00 0.00 0.00 0.00 0.00 0.00 0.00 0.00 0.00 0.00 0.00 0.00 0.00 0.00 0.00 0.00 0.00 0.00 0.00 0.00 0.00 0.00 0.00 0.00 0.00 0.00 0.00 0.00 0.00 0.00 0.00 0.00 0.00 0.00 0.00 0.00 0.00 0.00 0.00 0.00 0.00 0.00
0.00 0.00 0.00 0.00 0.00 0.00 0.00 0.00 0.00 0.00 0.00 0.00 0.00 0.00 0.00 0.00 0.00 0.00 0.00 0.00 0.00 0.00 0.00 0.00 0.00 0.00 0.00 0.00 0.00 0.00 0.00 0.00 0.00 0.00 0.00 0.00 0.00 0.00 0.00 0.00 0.00 0.00 0.00 0.00
0.00 0.00 0.00 0.00 0.00 0.00 0.00 0.00 0.00 0.00 0.00 0.00 0.00 0.00 0.00 0.00 0.00 0.00 0.00 0.00 0.00 0.00 0.00 0.00 0.00 0.00 0.00 0.00 0.00 0.00 0.00 0.00 0.00 0.00 0.00 0.00 0.00 0.00 0.00 0.00 0.00 0.00 0.00 0.00
0.00 0.00 0.00 0.00 0.00 0.00 0.00 0.00 0.00 0.00 0.00 0.00 0.00 0.00 0.00 0.00 0.00 0.00 0.00 0.00 0.00 0.00 0.00 0.00 0.00 0.00 0.00 0.00 0.00 0.00 0.00 0.00 0.00 0.00 0.00 0.00 0.00 0.00 0.00 0.00 0.00 0.00 0.00 0.00
0.00 0.00 0.00 0.00 0.00 0.00 0.00 0.00 0.00 0.00 0.00 0.00 0.00 0.00 0.00 0.00 0.00 0.00 0.00 0.00 0.00 0.00 0.00 0.00 0.00 0.00 0.00 0.00 0.00 0.00 0.00 0.00 0.00 0.00 0.00 0.00 0.00 0.00 0.00 0.00 0.00 0.00 0.00 0.00
0.00 0.00 0.00 0.00 0.00 0.00 0.00 0.00 0.00 0.00 0.00 0.00 0.00 0.00 0.00 0.00 0.00 0.00 0.00 0.00 0.00 0.00 0.00 0.00 0.00 0.00 0.00 0.00 0.00 0.00 0.00 0.00 0.00 0.00 0.00 0.00 0.00 0.00 0.00 0.00 0.00 0.00 0.00 0.00
0.00 0.00 0.00 0.00 0.00 0.00 0.00 0.00 0.00 0.00 0.00 0.00 0.00 0.00 0.00 0.00 0.00 0.00 0.00 0.00 0.00 0.00 0.00 0.00 0.00 0.00 0.00 0.00 0.00 0.00 0.00 0.00 0.00 0.00 0.00 0.00 0.00 0.00 0.00 0.00 0.00 0.00 0.01 0.01
0.00 0.00 0.00 0.00 0.00 0.00 0.00 0.00 0.00 0.00 0.00 0.00 0.00 0.00 0.00 0.00 0.00 0.00 0.00 0.00 0.00 0.00 0.00 0.00 0.00 0.00 0.00 0.00 0.00 0.00 0.00 0.00 0.00 0.00 0.00 0.00 0.00 0.00 0.00 0.00 0.00 0.00 0.01 0.01
0.00 0.00 0.00 0.00 0.00 0.00 0.00 0.00 0.00 0.00 0.00 0.00 0.00 0.00 0.00 0.00 0.00 0.00 0.00 0.00 0.00 0.00 0.00 0.00 0.00 0.00 0.00 0.00 0.00 0.00 0.00 0.00 0.00 0.00 0.00 0.00 0.00 0.00 0.00 0.00 0.00 0.01 0.01 0.04
0.00 0.00 0.00 0.00 0.00 0.00 0.00 0.00 0.00 0.00 0.00 0.00 0.00 0.00 0.00 0.00 0.00 0.00 0.00 0.00 0.00 0.00 0.00 0.00 0.00 0.00 0.00 0.00 0.00 0.00 0.00 0.00 0.00 0.00 0.00 0.00 0.00 0.00 0.00 0.00 0.00 0.01 0.01 0.05
0.00 0.00 0.00 0.00 0.00 0.00 0.00 0.00 0.00 0.00 0.00 0.00 0.00 0.00 0.00 0.00 0.00 0.00 0.00 0.00 0.00 0.00 0.00 0.00 0.00 0.00 0.00 0.00 0.00 0.00 0.00 0.00 0.00 0.00 0.00 0.00 0.00 0.00 0.00 0.00 0.00 0.00 0.01 0.02
MSLP
1019.73 1020.48 1021.22 1021.87 1022.43 1022.91 1023.32 1023.73 1024.18 1024.73 1025.38 1026.12 1026.93 1027.74 1028.48 1029.11 1029.59 1029.91 1030.10 1030.20 1030.28 1030.39 1030.57 1030.85 1031.22 1031.65 1032.07 1032.42 1032.66 1032.72 1032.60 1032.29 1031.84 1031.28 1030.67 1030.05 1029.46 1028.90 1028.38 1027.88 1027.38 1026.86 1026.31 1025.72
1020.65 1021.28 1021.85 1022.32 1022.69 1022.98 1023.25 1023.55 1023.95 1024.48 1025.15 1025.93 1026.79 1027.65 1028.44 1029.11 1029.61 1029.96 1030.18 1030.32 1030.43 1030.58 1030.80 1031.12 1031.52 1031.97 1032.41 1032.78 1033.02 1033.11 1033.02 1032.75 1032.34 1031.83 1031.25 1030.64 1030.04 1029.45 1028.88 1028.32 1027.75 1027.17 1026.57 1025.96
1021.55 1022.06 1022.47 1022.77 1022.97 1023.10 1023.24 1023.46 1023.80 1024.31 1024.98 1025.79 1026.66 1027.55 1028.37 1029.06 1029.60 1030.00 1030.27 1030.46 1030.64 1030.85 1031.12 1031.48 1031.90 1032.34 1032.77 1033.12 1033.34 1033.42 1033.33 1033.08 1032.71 1032.23 1031.69 1031.11 1030.52 1029.92 1029.32 1028.71 1028.10 1027.48 1026.85 1026.23
1022.44 1022.83 1023.10 1023.25 1023.30 1023.31 1023.36 1023.50 1023.80 1024.29 1024.94 1025.73 1026.60 1027.48 1028.29 1029.00 1029.56 1030.00 1030.33 1030.61 1030.87 1031.16 1031.50 1031.89 1032.32 1032.74 1033.13 1033.43 1033.60 1033.65 1033.54 1033.30 1032.95 1032.51 1032.01 1031.46 1030.89 1030.30 1029.70 1029.08 1028.45 1027.81 1027.17 1026.54
1023.28 1023.57 1023.72 1023.75 1023.70 1023.63 1023.61 1023.71 1023.98 1024.44 1025.06 1025.81 1026.63 1027.46 1028.24 1028.93 1029.50 1029.98 1030.38 1030.74 1031.10 1031.47 1031.88 1032.31 1032.74 1033.13 1033.46 1033.70 1033.81 1033.80 1033.66 1033.41 1033.07 1032.67 1032.21 1031.71 1031.18 1030.62 1030.04 1029.43 1028.81 1028.17 1027.53 1026.90
1024.06 1024.27 1024.33 1024.28 1024.17 1024.05 1024.00 1024.09 1024.34 1024.76 1025.34 1026.03 1026.77 1027.53 1028.24 1028.88 1029.44 1029.94 1030.40 1030.84 1031.28 1031.74 1032.21 1032.68 1033.12 1033.48 1033.76 1033.92 1033.97 1033.89 1033.72 1033.46 1033.13 1032.76 1032.34 1031.89 1031.41 1030.89 1030.34 1029.76 1029.15 1028.53 1027.90 1027.26
1024.76 1024.90 1024.90 1024.81 1024.67 1024.54 1024.50 1024.58 1024.83 1025.22 1025.75 1026.36 1027.02 1027.68 1028.30 1028.87 1029.40 1029.90 1030.39 1030.89 1031.42 1031.95 1032.49 1032.99 1033.43 1033.77 1034.00 1034.11 1034.09 1033.97 1033.76 1033.49 1033.17 1032.83 1032.45 1032.04 1031.60 1031.11 1030.59 1030.04 1029.45 1028.84 1028.22 1027.58
1025.35 1025.44 1025.41 1025.29 1025.16 1025.05 1025.03 1025.14 1025.39 1025.77 1026.25 1026.79 1027.35 1027.90 1028.42 1028.92 1029.40 1029.88 1030.39 1030.94 1031.52 1032.12 1032.70 1033.23 1033.67 1034.00 1034.20 1034.26 1034.20 1034.05 1033.82 1033.54 1033.24 1032.90 1032.55 1032.17 1031.75 1031.29 1030.79 1030.24 1029.67 1029.07 1028.45 1027.82
1025.83 1025.88 1025.83 1025.72 1025.60 1025.53 1025.56 1025.70 1025.96 1026.33 1026.76 1027.23 1027.70 1028.16 1028.59 1029.01 1029.44 1029.90 1030.42 1030.99 1031.61 1032.25 1032.87 1033.42 1033.87 1034.19 1034.37 1034.41 1034.33 1034.16 1033.92 1033.64 1033.34 1033.02 1032.67 1032.29 1031.87 1031.41 1030.90 1030.36 1029.78 1029.18 1028.57 1027.93
1026.21 1026.23 1026.17 1026.07 1025.98 1025.95 1026.01 1026.19 1026.46 1026.81 1027.21 1027.63 1028.03 1028.41 1028.77 1029.13 1029.53 1029.98 1030.50 1031.09 1031.74 1032.40 1033.04 1033.60 1034.06 1034.37 1034.54 1034.57 1034.49 1034.31 1034.07 1033.80 1033.49 1033.17 1032.81 1032.41 1031.97 1031.48 1030.94 1030.37 1029.77 1029.17 1028.55 1027.91
1026.52 1026.53 1026.46 1026.37 1026.30 1026.29 1026.38 1026.56 1026.84 1027.17 1027.54 1027.91 1028.27 1028.60 1028.93 1029.28 1029.67 1030.12 1030.66 1031.27 1031.93 1032.61 1033.25 1033.82 1034.27 1034.58 1034.74 1034.77 1034.69 1034.51 1034.28 1034.00 1033.69 1033.34 1032.95 1032.52 1032.03 1031.49 1030.90 1030.29 1029.67 1029.04 1028.42 1027.79
1026.82 1026.81 1026.74 1026.65 1026.58 1026.58 1026.65 1026.82 1027.07 1027.38 1027.71 1028.05 1028.39 1028.71 1029.05 1029.41 1029.83 1030.32 1030.90 1031.54 1032.22 1032.91 1033.55 1034.11 1034.54 1034.84 1034.99 1035.01 1034.92 1034.75 1034.51 1034.22 1033.89 1033.52 1033.09 1032.60 1032.06 1031.45 1030.81 1030.16 1029.49 1028.85 1028.22 1027.60
1027.17 1027.15 1027.07 1026.96 1026.87 1026.84 1026.87 1026.99 1027.18 1027.44 1027.73 1028.05 1028.38 1028.73 1029.11 1029.54 1030.03 1030.59 1031.22 1031.91 1032.62 1033.32 1033.95 1034.49 1034.89 1035.16 1035.29 1035.29 1035.19 1035.00 1034.75 1034.44 1034.09 1033.67 1033.20 1032.66 1032.05 1031.39 1030.70 1029.99 1029.30 1028.64 1028.00 1027.39
1027.59 1027.56 1027.47 1027.34 1027.20 1027.10 1027.07 1027.10 1027.21 1027.40 1027.65 1027.94 1028.29 1028.68 1029.13 1029.65 1030.24 1030.90 1031.62 1032.37 1033.12 1033.83 1034.45 1034.96 1035.33 1035.55 1035.64 1035.61 1035.47 1035.25 1034.97 1034.63 1034.24 1033.78 1033.26 1032.67 1032.01 1031.31 1030.57 1029.84 1029.12 1028.44 1027.80 1027.19
1028.07 1028.05 1027.94 1027.77 1027.58 1027.40 1027.27 1027.20 1027.21 1027.32 1027.51 1027.78 1028.15 1028.60 1029.15 1029.78 1030.49 1031.27 1032.08 1032.91 1033.70 1034.42 1035.03 1035.50 1035.82 1035.99 1036.02 1035.93 1035.74 1035.48 1035.15 1034.77 1034.33 1033.83 1033.27 1032.64 1031.95 1031.22 1030.46 1029.71 1028.99 1028.30 1027.65 1027.04
1028.58 1028.56 1028.44 1028.24 1027.99 1027.72 1027.49 1027.31 1027.22 1027.24 1027.38 1027.65 1028.04 1028.56 1029.20 1029.95 1030.79 1031.68 1032.60 1033.49 1034.32 1035.05 1035.64 1036.07 1036.34 1036.44 1036.40 1036.24 1035.99 1035.66 1035.27 1034.83 1034.35 1033.81 1033.21 1032.56 1031.86 1031.12 1030.36 1029.62 1028.89 1028.21 1027.56 1026.93
1029.02 1029.01 1028.89 1028.65 1028.35 1028.02 1027.70 1027.44 1027.27 1027.23 1027.33 1027.59 1028.02 1028.61 1029.35 1030.20 1031.15 1032.15 1033.14 1034.10 1034.96 1035.68 1036.25 1036.63 1036.83 1036.86 1036.75 1036.51 1036.18 1035.78 1035.32 1034.83 1034.29 1033.72 1033.10 1032.44 1031.74 1031.01 1030.28 1029.55 1028.84 1028.16 1027.50 1026.86
1029.30 1029.30 1029.17 1028.92 1028.60 1028.23 1027.86 1027.55 1027.35 1027.28 1027.39 1027.67 1028.15 1028.81 1029.62 1030.57 1031.60 1032.67 1033.72 1034.70 1035.56 1036.27 1036.80 1037.13 1037.26 1037.22 1037.03 1036.72 1036.31 1035.84 1035.32 1034.76 1034.18 1033.57 1032.94 1032.28 1031.60 1030.90 1030.20 1029.50 1028.82 1028.14 1027.48 1026.82
1029.32 1029.32 1029.20 1028.96 1028.64 1028.28 1027.93 1027.63 1027.45 1027.41 1027.56 1027.91 1028.45 1029.18 1030.06 1031.07 1032.15 1033.24 1034.30 1035.28 1036.11 1036.78 1037.26 1037.53 1037.60 1037.50 1037.24 1036.86 1036.39 1035.85 1035.27 1034.66 1034.04 1033.40 1032.76 1032.11 1031.45 1030.79 1030.13 1029.47 1028.81 1028.15 1027.48 1026.80
1029.05 1029.05 1028.94 1028.73 1028.45 1028.14 1027.85 1027.64 1027.54 1027.60 1027.85 1028.28 1028.91 1029.71 1030.65 1031.69 1032.77 1033.86 1034.89 1035.81 1036.59 1037.20 1037.61 1037.82 1037.84 1037.68 1037.37 1036.94 1036.41 1035.83 1035.20 1034.55 1033.90 1033.24 1032.60 1031.96 1031.33 1030.70 1030.08 1029.46 1028.83 1028.18 1027.52 1026.83
1028.53 1028.51 1028.41 1028.24 1028.02 1027.81 1027.65 1027.57 1027.62 1027.83 1028.22 1028.78 1029.51 1030.38 1031.36 1032.40 1033.47 1034.50 1035.46 1036.30 1037.00 1037.52 1037.86 1038.01 1037.97 1037.77 1037.43 1036.97 1036.42 1035.80 1035.14 1034.47 1033.79 1033.12 1032.48 1031.85 1031.24 1030.65 1030.07 1029.48 1028.88 1028.26 1027.60 1026.91
1027.84 1027.78 1027.68 1027.55 1027.43 1027.34 1027.33 1027.44 1027.69 1028.09 1028.65 1029.36 1030.20 1031.14 1032.15 1033.18 1034.19 1035.14 1036.00 1036.73 1037.32 1037.75 1038.01 1038.10 1038.03 1037.80 1037.45 1036.98 1036.42 1035.79 1035.12 1034.43 1033.75 1033.07 1032.43 1031.81 1031.22 1030.66 1030.11 1029.56 1028.99 1028.39 1027.76 1027.07
1027.08 1026.98 1026.88 1026.80 1026.77 1026.82 1026.99 1027.30 1027.76 1028.37 1029.12 1029.99 1030.94 1031.95 1032.97 1033.97 1034.90 1035.75 1036.49 1037.11 1037.58 1037.91 1038.10 1038.13 1038.03 1037.80 1037.44 1036.98 1036.43 1035.81 1035.15 1034.46 1033.77 1033.10 1032.46 1031.85 1031.29 1030.75 1030.22 1029.70 1029.17 1028.60 1027.98 1027.32
1026.39 1026.23 1026.12 1026.08 1026.15 1026.34 1026.69 1027.20 1027.88 1028.69 1029.63 1030.64 1031.70 1032.76 1033.78 1034.72 1035.58 1036.32 1036.93 1037.42 1037.79 1038.02 1038.14 1038.13 1038.01 1037.78 1037.44 1037.00 1036.47 1035.88 1035.23 1034.56 1033.87 1033.21 1032.57 1031.97 1031.42 1030.90 1030.40 1029.91 1029.40 1028.86 1028.27 1027.64
1025.84 1025.63 1025.52 1025.52 1025.67 1026.00 1026.51 1027.20 1028.07 1029.06 1030.15 1031.29 1032.42 1033.51 1034.52 1035.42 1036.18 1036.81 1037.32 1037.69 1037.95 1038.11 1038.16 1038.12 1037.99 1037.76 1037.44 1037.03 1036.53 1035.97 1035.34 1034.68 1034.01 1033.36 1032.73 1032.14 1031.60 1031.09 1030.62 1030.15 1029.66 1029.15 1028.59 1028.00
1025.46 1025.22 1025.11 1025.16 1025.39 1025.83 1026.48 1027.33 1028.34 1029.48 1030.68 1031.90 1033.09 1034.19 1035.17 1036.01 1036.69 1037.23 1037.63 1037.91 1038.08 1038.17 1038.18 1038.11 1037.97 1037.75 1037.45 1037.07 1036.60 1036.06 1035.45 1034.81 1034.16 1033.51 1032.89 1032.31 1031.78 1031.29 1030.83 1030.38 1029.91 1029.43 1028.90 1028.33
Thickness
5722 5704 5683 5683 5687 5687 5687 5682 5673 5652 5645 5640 5631 5612 5602 5595 5586 5578 5568 5557 5546 5534 5522 5509 5495 5480 5464 5450 5434 5420 5407 5396 5386 5378 5371 5367 5363 5360 5358 5355 5353 5352 5352 5354
5702 5681 5683 5691 5691 5688 5684 5676 5667 5648 5642 5635 5624 5612 5601 5590 5579 5566 5556 5546 5536 5523 5509 5495 5480 5464 5447 5431 5414 5400 5387 5376 5366 5357 5350 5345 5342 5340 5338 5335 5333 5333 5333 5335
5684 5679 5687 5688 5682 5677 5679 5665 5654 5648 5633 5629 5619 5606 5595 5583 5571 5558 5549 5539 5526 5511 5494 5480 5465 5447 5430 5413 5397 5382 5368 5358 5348 5340 5334 5328 5326 5322 5318 5316 5315 5313 5313 5314
5681 5683 5682 5680 5669 5663 5663 5657 5651 5645 5628 5622 5611 5598 5586 5573 5560 5551 5541 5527 5512 5497 5482 5467 5450 5431 5413 5395 5379 5364 5351 5341 5332 5323 5316 5310 5306 5302 5298 5296 5295 5294 5293 5294
5672 5673 5672 5667 5660 5656 5656 5655 5646 5641 5631 5622 5610 5597 5581 5567 5554 5545 5532 5516 5501 5485 5470 5453 5434 5414 5396 5379 5363 5349 5337 5326 5317 5307 5299 5293 5287 5284 5281 5279 5278 5277 5276 5277
5671 5673 5667 5660 5662 5659 5654 5651 5645 5636 5623 5609 5620 5598 5578 5565 5554 5535 5519 5505 5491 5475 5457 5438 5419 5400 5382 5365 5349 5336 5324 5313 5304 5295 5287 5280 5275 5271 5268 5266 5264 5263 5262 5262
5666 5666 5665 5663 5657 5658 5651 5639 5628 5620 5609 5612 5620 5606 5566 5551 5537 5523 5509 5497 5482 5463 5442 5422 5403 5385 5368 5352 5337 5324 5313 5303 5293 5285 5277 5270 5264 5259 5255 5252 5250 5249 5249 5248
5668 5656 5654 5653 5644 5635 5643 5635 5610 5599 5603 5614 5611 5586 5547 5542 5530 5519 5507 5490 5470 5449 5428 5408 5390 5372 5355 5340 5326 5314 5302 5293 5284 5276 5268 5261 5254 5249 5244 5240 5237 5236 5234 5234
5651 5651 5648 5645 5643 5636 5631 5624 5618 5603 5603 5598 5598 5556 5544 5537 5526 5514 5498 5478 5456 5437 5417 5396 5378 5361 5344 5329 5316 5304 5294 5284 5276 5267 5259 5253 5246 5240 5235 5231 5227 5225 5223 5222
5646 5643 5649 5643 5638 5631 5629 5619 5610 5599 5585 5577 5593 5575 5545 5528 5518 5502 5485 5465 5446 5426 5405 5386 5368 5351 5334 5320 5307 5296 5286 5276 5267 5259 5250 5244 5237 5231 5226 5222 5219 5216 5214 5212
5644 5637 5642 5638 5635 5628 5622 5617 5609 5599 5589 5568 5562 5556 5543 5522 5507 5491 5475 5456 5436 5415 5394 5375 5357 5340 5325 5312 5300 5289 5279 5270 5261 5252 5243 5236 5230 5224 5219 5215 5211 5208 5206 5204
5638 5628 5632 5629 5620 5620 5615 5606 5598 5583 5580 5578 5560 5542 5535 5516 5503 5486 5467 5448 5426 5404 5383 5364 5346 5331 5317 5304 5293 5282 5273 5263 5253 5245 5236 5229 5223 5217 5212 5208 5204 5201 5198 5196
5624 5624 5622 5618 5611 5610 5609 5601 5592 5582 5569 5557 5547 5541 5527 5508 5496 5478 5458 5437 5414 5393 5373 5354 5336 5322 5309 5297 5286 5276 5265 5256 5247 5238 5229 5222 5215 5210 5205 5201 5197 5193 5190 5187
5620 5617 5617 5611 5609 5598 5599 5593 5586 5574 5557 5554 5555 5541 5517 5501 5485 5468 5448 5424 5402 5382 5362 5344 5327 5313 5301 5290 5279 5269 5259 5249 5240 5231 5222 5215 5208 5203 5198 5194 5189 5184 5180 5176
5617 5613 5621 5618 5612 5601 5593 5587 5582 5570 5562 5550 5548 5534 5516 5492 5478 5459 5437 5415 5393 5372 5354 5336 5319 5306 5295 5284 5273 5263 5253 5243 5234 5225 5217 5210 5204 5199 5193 5187 5181 5175 5168 5163
5617 5609 5613 5612 5607 5595 5587 5584 5577 5568 5559 5550 5540 5526 5503 5491 5473 5451 5426 5404 5382 5362 5344 5327 5312 5300 5288 5278 5268 5258 5248 5238 5229 5221 5215 5209 5202 5195 5188 5180 5173 5165 5156 5148
5613 5605 5599 5596 5604 5596 5589 5590 5574 5567 5559 5548 5531 5515 5499 5481 5463 5440 5414 5392 5371 5353 5335 5319 5305 5293 5282 5272 5263 5253 5244 5235 5227 5220 5213 5206 5198 5191 5183 5174 5165 5154 5144 5134
5606 5600 5590 5583 5588 5581 5594 5578 5577 5567 5558 5545 5529 5511 5493 5473 5450 5422 5400 5380 5362 5345 5328 5313 5300 5288 5278 5269 5259 5249 5240 5233 5226 5219 5211 5203 5195 5187 5178 5168 5157 5145 5133 5120
5598 5593 5584 5571 5573 5587 5578 5571 5564 5552 5545 5539 5521 5505 5485 5466 5443 5407 5392 5375 5357 5339 5324 5309 5296 5286 5275 5265 5256 5247 5239 5233 5226 5218 5209 5201 5192 5183 5173 5162 5150 5138 5124 5111
5592 5587 5576 5570 5560 5568 5583 5567 5560 5545 5531 5526 5511 5494 5475 5455 5425 5406 5384 5370 5351 5335 5320 5306 5294 5283 5272 5262 5253 5245 5239 5233 5224 5215 5206 5198 5189 5180 5169 5158 5145 5132 5117 5104
5588 5580 5567 5566 5562 5576 5569 5558 5547 5528 5531 5515 5502 5484 5465 5443 5419 5398 5382 5364 5347 5331 5316 5303 5290 5279 5269 5260 5252 5244 5237 5230 5221 5213 5205 5197 5188 5178 5168 5155 5142 5129 5115 5102
5597 5586 5578 5572 5562 5569 5559 5546 5535 5533 5521 5510 5492 5474 5454 5435 5414 5395 5375 5358 5341 5325 5311 5298 5286 5276 5266 5258 5251 5243 5236 5228 5220 5212 5205 5197 5188 5178 5168 5155 5142 5130 5116 5103
5610 5604 5595 5587 5582 5575 5563 5554 5544 5531 5516 5500 5481 5464 5446 5427 5407 5387 5370 5353 5337 5321 5306 5294 5282 5272 5264 5257 5250 5243 5236 5229 5220 5213 5205 5197 5189 5178 5168 5157 5145 5132 5119 5106
5616 5605 5595 5587 5584 5569 5560 5547 5537 5526 5508 5491 5473 5455 5438 5418 5398 5381 5363 5347 5331 5316 5302 5290 5279 5270 5263 5257 5250 5243 5236 5228 5220 5213 5206 5199 5190 5180 5169 5159 5148 5136 5124 5112
5620 5595 5588 5586 5579 5564 5555 5542 5529 5514 5498 5481 5464 5447 5429 5410 5392 5376 5358 5341 5325 5312 5299 5288 5277 5269 5263 5257 5251 5244 5236 5229 5221 5214 5208 5200 5191 5181 5171 5160 5149 5140 5128 5119
5617 5605 5592 5590 5585 5563 5551 5539 5523 5505 5489 5473 5455 5438 5422 5404 5386 5370 5352 5335 5321 5308 5296 5286 5277 5271 5264 5257 5250 5244 5237 5229 5223 5217 5211 5202 5194 5184 5175 5164 5154 5144 5136 5128